This is the latest recevied weather packets stored in our database for station/object WX6HNX-2. If no packets are shown the sender has not sent any weather packets the latest 10 day(s).
| Time | Temp. | Humidity | Pressure | Rain* | Wind** | Luminosity | Snow |
|---|---|---|---|---|---|---|---|
| 1777657734 | 23.89° C | 47% | 1015.5 hPa | 0 mm | - | - | - |
| 1777657494 | 23.89° C | 49% | 1015.5 hPa | 0 mm | - | - | - |
| 1777657254 | 23.89° C | 47% | 1015.5 hPa | 0 mm | - | - | - |
| 1777657014 | 23.33° C | 48% | 1015.5 hPa | 0 mm | - | - | - |
| 1777656774 | 23.33° C | 50% | 1015.5 hPa | 0 mm | - | - | - |
| 1777656534 | 23.33° C | 49% | 1015.5 hPa | 0 mm | - | - | - |
| 1777656294 | 23.33° C | 50% | 1015.5 hPa | 0 mm | - | - | - |
| 1777656054 | 22.78° C | 52% | 1015.5 hPa | 0 mm | - | - | - |
| 1777655814 | 22.78° C | 49% | 1015.5 hPa | 0 mm | - | - | - |
| 1777655574 | 22.78° C | 50% | 1015.5 hPa | 0 mm | - | - | - |
| 1777655334 | 22.78° C | 53% | 1015.5 hPa | 0 mm | - | - | - |
| 1777655094 | 22.22° C | 55% | 1015.5 hPa | 0 mm | - | - | - |
| 1777654854 | 22.22° C | 54% | 1015.5 hPa | 0 mm | - | - | - |
| 1777654614 | 22.22° C | 53% | 1015.6 hPa | 0 mm | - | - | - |
| 1777654374 | 22.22° C | 53% | 1015.6 hPa | 0 mm | - | - | - |
| 1777654134 | 22.22° C | 52% | 1015.6 hPa | 0 mm | - | - | - |
| 1777653654 | 22.22° C | 57% | 1015.6 hPa | 0 mm | - | - | - |
| 1777653174 | 21.11° C | 58% | 1015.7 hPa | 0 mm | - | - | - |
| 1777652934 | 21.11° C | 57% | 1015.7 hPa | 0 mm | - | - | - |
| 1777652694 | 20.56° C | 59% | 1015.7 hPa | 0 mm | - | - | - |
| 1777652214 | 20° C | 57% | 1015.7 hPa | 0 mm | - | - | - |
| 1777651974 | 20° C | 60% | 1015.7 hPa | 0 mm | - | - | - |
| 1777651734 | 19.44° C | 61% | 1015.7 hPa | 0 mm | - | - | - |
| 1777651254 | 18.89° C | 63% | 1015.6 hPa | 0 mm | - | - | - |
| 1777651014 | 18.33° C | 67% | 1015.7 hPa | 0 mm | - | - | - |
* Rain latest hour (hover to see other rain measurements)
** Current wind speed in m/s (hover to see current wind gust speed)